�������l�o���
Date,Time,MP-1(��Sv/h),MP-2(��Sv/h),MP-3(��Sv/h),MP-4(��Sv/h),MP-5(��Sv/h),MP-6(��Sv/h),MP-7(��Sv/h),MP-8(��Sv/h),����,����(m/s),���J
2021/07/05,00:00,0.585,0.856,0.557,1.046,0.742,0.359,0.618,0.582,��쓌,7.2,�L
2021/07/05,00:10,0.586,0.858,0.557,1.048,0.747,0.361,0.618,0.582,��,6.5,�L
2021/07/05,00:20,0.586,0.859,0.558,1.048,0.745,0.361,0.618,0.582,��쓌,6.6,�L
2021/07/05,00:30,0.586,0.861,0.559,1.045,0.744,0.360,0.618,0.583,��,6.8,�L
2021/07/05,00:40,0.587,0.859,0.556,1.045,0.745,0.360,0.620,0.582,��,6.8,�L
2021/07/05,00:50,0.586,0.859,0.556,1.046,0.746,0.360,0.620,0.583,��,7.7,��
2021/07/05,01:00,0.586,0.859,0.555,1.047,0.746,0.361,0.619,0.581,��,8.2,��
2021/07/05,01:10,0.587,0.859,0.557,1.048,0.746,0.359,0.622,0.581,��,8.2,��
2021/07/05,01:20,0.588,0.859,0.556,1.049,0.746,0.359,0.619,0.581,��,7.5,��
2021/07/05,01:30,0.586,0.863,0.557,1.048,0.744,0.359,0.619,0.582,��,6.7,��
2021/07/05,01:40,0.586,0.860,0.558,1.049,0.745,0.359,0.621,0.583,��쓌,6.6,��
2021/07/05,01:50,0.587,0.862,0.557,1.049,0.745,0.358,0.621,0.582,��쓌,6.0,��
2021/07/05,02:00,0.586,0.861,0.556,1.049,0.745,0.359,0.621,0.583,��,6.3,��
2021/07/05,02:10,0.587,0.862,0.557,1.051,0.748,0.358,0.621,0.582,��,6.3,��
2021/07/05,02:20,0.587,0.862,0.556,1.050,0.745,0.359,0.622,0.583,��,5.0,��
2021/07/05,02:30,0.588,0.863,0.559,1.051,0.746,0.359,0.622,0.582,��,5.1,��
2021/07/05,02:40,0.587,0.863,0.558,1.051,0.746,0.358,0.623,0.584,��쓌,6.0,��
2021/07/05,02:50,0.586,0.861,0.559,1.051,0.747,0.360,0.623,0.584,��쓌,5.8,��
2021/07/05,03:00,0.586,0.862,0.557,1.051,0.748,0.359,0.622,0.582,��,4.3,��
2021/07/05,03:10,0.588,0.862,0.558,1.049,0.749,0.358,0.622,0.582,��,3.9,��
2021/07/05,03:20,0.587,0.864,0.557,1.051,0.748,0.359,0.621,0.583,��,5.6,��
2021/07/05,03:30,0.589,0.864,0.559,1.051,0.746,0.359,0.620,0.582,��쓌,6.7,��
2021/07/05,03:40,0.588,0.862,0.557,1.053,0.750,0.360,0.623,0.583,��쓌,8.2,�L
2021/07/05,03:50,0.587,0.863,0.560,1.052,0.748,0.359,0.623,0.582,��,7.2,��
2021/07/05,04:00,0.587,0.862,0.556,1.051,0.750,0.357,0.623,0.582,��,7.0,��
2021/07/05,04:10,0.588,0.864,0.557,1.053,0.749,0.360,0.621,0.583,��,4.8,��
2021/07/05,04:20,0.588,0.864,0.558,1.052,0.749,0.360,0.622,0.582,��쓌,5.6,�L
2021/07/05,04:30,0.589,0.865,0.558,1.053,0.748,0.360,0.624,0.584,��,5.6,�L
2021/07/05,04:40,0.588,0.863,0.558,1.056,0.750,0.359,0.621,0.582,��,3.4,�L
2021/07/05,04:50,0.588,0.864,0.559,1.054,0.749,0.359,0.621,0.582,��,4.9,�L
2021/07/05,05:00,0.589,0.864,0.559,1.053,0.750,0.359,0.622,0.581,��,5.0,�L
2021/07/05,05:10,0.589,0.861,0.556,1.052,0.745,0.360,0.621,0.583,��,4.1,�L
2021/07/05,05:20,0.585,0.856,0.557,1.048,0.742,0.359,0.620,0.580,��,3.4,�L
2021/07/05,05:30,0.586,0.858,0.555,1.044,0.741,0.360,0.619,0.580,�쐼,1.7,�L
2021/07/05,05:40,0.576,0.844,0.553,1.036,0.736,0.359,0.616,0.579,��,0.8,�L
2021/07/05,05:50,0.576,0.843,0.554,1.031,0.735,0.359,0.615,0.578,��쓌,0.9,�L
2021/07/05,06:00,0.583,0.848,0.553,1.034,0.737,0.360,0.617,0.579,��쓌,1.5,�L
2021/07/05,06:10,0.584,0.850,0.555,1.037,0.739,0.361,0.617,0.579,��,4.1,�L
2021/07/05,06:20,0.585,0.853,0.556,1.036,0.741,0.361,0.618,0.579,��,3.2,�L
2021/07/05,06:30,0.587,0.853,0.558,1.037,0.740,0.362,0.618,0.580,��,3.9,�L
2021/07/05,06:40,0.588,0.855,0.557,1.039,0.742,0.362,0.619,0.581,��쐼,3.0,�L
2021/07/05,06:50,0.587,0.856,0.559,1.041,0.741,0.363,0.619,0.581,��쐼,2.8,�L
2021/07/05,07:00,0.587,0.858,0.558,1.040,0.742,0.362,0.620,0.581,��쐼,2.0,�L
2021/07/05,07:10,0.592,0.856,0.557,1.041,0.741,0.361,0.619,0.581,��,2.0,��
2021/07/05,07:20,0.587,0.855,0.555,1.041,0.741,0.360,0.619,0.583,��쐼,2.9,��
2021/07/05,07:30,0.586,0.857,0.556,1.044,0.741,0.360,0.618,0.581,��쐼,2.6,�L
2021/07/05,07:40,0.587,0.855,0.556,1.043,0.741,0.361,0.619,0.580,��쐼,2.3,�L
2021/07/05,07:50,0.588,0.858,0.558,1.044,0.741,0.362,0.619,0.580,��쐼,2.3,�L
2021/07/05,08:00,0.588,0.858,0.559,1.044,0.742,0.361,0.620,0.581,��쐼,3.1,�L
2021/07/05,08:10,0.588,0.857,0.555,1.044,0.740,0.363,0.620,0.582,��쐼,3.1,�L
2021/07/05,08:20,0.588,0.856,0.559,1.044,0.740,0.362,0.618,0.581,��쐼,3.7,�L
2021/07/05,08:30,0.588,0.856,0.556,1.044,0.743,0.360,0.619,0.581,��쐼,4.3,�L
2021/07/05,08:40,0.587,0.856,0.559,1.043,0.742,0.362,0.619,0.581,��쐼,5.0,��
2021/07/05,08:50,0.588,0.855,0.558,1.045,0.743,0.361,0.620,0.580,�쐼,6.8,�L
2021/07/05,09:00,0.590,0.856,0.558,1.046,0.743,0.361,0.619,0.581,�쐼,8.1,�L
2021/07/05,09:10,0.590,0.855,0.556,1.048,0.742,0.361,0.620,0.582,�쐼,6.6,�L
2021/07/05,09:20,0.587,0.856,0.559,1.049,0.743,0.362,0.620,0.582,��쐼,4.0,�L
2021/07/05,09:30,0.590,0.856,0.559,1.046,0.742,0.361,0.620,0.583,��쐼,3.7,�L
2021/07/05,09:40,0.589,0.856,0.558,1.048,0.742,0.362,0.620,0.581,��쐼,5.8,�L
2021/07/05,09:50,0.589,0.858,0.560,1.049,0.743,0.362,0.622,0.581,��쐼,6.7,�L
2021/07/05,10:00,0.589,0.857,0.560,1.047,0.744,0.363,0.621,0.581,��쐼,5.6,�L
2021/07/05,10:10,0.589,0.857,0.560,1.050,0.746,0.362,0.621,0.581,��쐼,5.2,�L
2021/07/05,10:20,0.589,0.859,0.560,1.051,0.746,0.362,0.621,0.582,��쐼,5.1,�L
2021/07/05,10:30,0.591,0.857,0.561,1.051,0.748,0.362,0.621,0.582,��,3.0,�L
2021/07/05,10:40,0.591,0.858,0.562,1.048,0.746,0.363,0.620,0.581,�k��,0.6,�L
2021/07/05,10:50,0.591,0.859,0.562,1.049,0.746,0.363,0.619,0.581,��쐼,2.9,�L
2021/07/05,11:00,0.592,0.860,0.562,1.049,0.748,0.364,0.621,0.582,��쐼,4.0,�L
2021/07/05,11:10,0.591,0.856,0.560,1.049,0.746,0.363,0.622,0.582,��쐼,3.3,�L
2021/07/05,11:20,0.591,0.859,0.561,1.048,0.747,0.362,0.622,0.582,��,3.9,�L
2021/07/05,11:30,0.591,0.862,0.561,1.046,0.748,0.363,0.622,0.584,��,4.0,��
2021/07/05,11:40,0.591,0.861,0.560,1.050,0.747,0.364,0.623,0.583,��쐼,2.0,��
2021/07/05,11:50,0.590,0.861,0.560,1.051,0.747,0.363,0.621,0.581,��쐼,2.2,��
2021/07/05,12:00,0.591,0.859,0.558,1.049,0.748,0.361,0.621,0.582,��쐼,3.2,�L
2021/07/05,12:10,0.591,0.860,0.558,1.048,0.744,0.363,0.621,0.582,��,3.4,�L
2021/07/05,12:20,0.592,0.861,0.559,1.047,0.748,0.362,0.622,0.584,��쐼,1.1,��
2021/07/05,12:30,0.592,0.859,0.558,1.047,0.746,0.361,0.623,0.581,��쐼,1.5,��
2021/07/05,12:40,0.592,0.860,0.557,1.047,0.747,0.360,0.621,0.583,��쐼,2.3,��
2021/07/05,12:50,0.591,0.861,0.558,1.047,0.747,0.362,0.621,0.583,�쐼,1.7,�L
2021/07/05,13:00,0.593,0.860,0.561,1.049,0.749,0.361,0.624,0.584,�쐼,0.9,�L
2021/07/05,13:10,0.591,0.860,0.560,1.049,0.749,0.361,0.624,0.583,-,CALM,�L
2021/07/05,13:20,0.594,0.863,0.560,1.053,0.748,0.363,0.623,0.583,�쐼,0.9,�L
2021/07/05,13:30,0.593,0.859,0.560,1.050,0.751,0.364,0.624,0.583,�쐼,0.9,�L
2021/07/05,13:40,0.594,0.865,0.561,1.050,0.751,0.363,0.624,0.584,���쐼,0.9,�L
2021/07/05,13:50,0.593,0.864,0.560,1.048,0.754,0.362,0.623,0.585,-,CALM,��
2021/07/05,14:00,0.595,0.866,0.561,1.050,0.754,0.362,0.624,0.585,��쓌,0.6,��
2021/07/05,14:10,0.594,0.864,0.561,1.052,0.752,0.362,0.625,0.585,��쓌,0.9,��
2021/07/05,14:20,0.594,0.867,0.562,1.053,0.753,0.364,0.625,0.584,�k�k��,1.7,��
2021/07/05,14:30,0.594,0.866,0.563,1.052,0.753,0.364,0.624,0.583,�k��,1.9,��
2021/07/05,14:40,0.591,0.867,0.561,1.053,0.753,0.364,0.626,0.583,���k��,2.0,��
2021/07/05,14:50,0.592,0.866,0.561,1.054,0.753,0.364,0.623,0.584,�쓌,1.2,��
2021/07/05,15:00,0.591,0.866,0.563,1.053,0.753,0.363,0.625,0.585,��,2.8,��
2021/07/05,15:10,0.594,0.865,0.562,1.055,0.753,0.362,0.624,0.584,��,3.3,��
2021/07/05,15:20,0.594,0.867,0.562,1.054,0.756,0.363,0.624,0.583,��,3.0,��
2021/07/05,15:30,0.592,0.869,0.562,1.054,0.756,0.362,0.625,0.583,�쓌,2.5,��
2021/07/05,15:40,0.594,0.868,0.563,1.053,0.753,0.362,0.624,0.585,���쓌,2.3,��
2021/07/05,15:50,0.592,0.868,0.562,1.056,0.755,0.362,0.624,0.584,���쓌,1.5,��
2021/07/05,16:00,0.592,0.867,0.563,1.054,0.755,0.363,0.625,0.585,�쓌,2.6,��
2021/07/05,16:10,0.594,0.867,0.563,1.054,0.754,0.364,0.625,0.585,��쓌,2.6,��
2021/07/05,16:20,0.593,0.870,0.562,1.056,0.755,0.362,0.626,0.584,��쓌,2.2,��
2021/07/05,16:30,0.594,0.869,0.563,1.057,0.753,0.363,0.626,0.586,�쓌,1.7,��
2021/07/05,16:40,0.595,0.871,0.564,1.055,0.756,0.362,0.627,0.584,���쓌,1.5,��
2021/07/05,16:50,0.594,0.870,0.563,1.058,0.756,0.362,0.626,0.584,�쓌,1.7,��
2021/07/05,17:00,0.595,0.870,0.563,1.057,0.755,0.364,0.626,0.584,�쓌,1.1,��
2021/07/05,17:10,0.597,0.870,0.563,1.055,0.755,0.364,0.626,0.585,��쓌,1.2,��
2021/07/05,17:20,0.595,0.870,0.563,1.058,0.757,0.364,0.629,0.586,�쓌,1.2,��
2021/07/05,17:30,0.597,0.873,0.564,1.057,0.756,0.365,0.626,0.584,�쐼,0.6,��
2021/07/05,17:40,0.596,0.872,0.564,1.057,0.758,0.364,0.626,0.586,���k��,2.2,��
2021/07/05,17:50,0.595,0.873,0.566,1.059,0.754,0.365,0.625,0.584,���k��,3.3,��
2021/07/05,18:00,0.595,0.873,0.564,1.059,0.756,0.363,0.627,0.585,��,4.3,��
2021/07/05,18:10,0.596,0.870,0.565,1.059,0.754,0.364,0.627,0.585,���k��,3.3,��
2021/07/05,18:20,0.598,0.871,0.564,1.059,0.757,0.366,0.627,0.586,���k��,4.8,��
2021/07/05,18:30,0.597,0.871,0.564,1.060,0.757,0.364,0.627,0.586,��,6.8,��
2021/07/05,18:40,0.598,0.872,0.564,1.060,0.756,0.364,0.627,0.583,��,5.9,��
2021/07/05,18:50,0.596,0.873,0.564,1.060,0.758,0.365,0.628,0.586,��,7.0,��
2021/07/05,19:00,0.596,0.873,0.564,1.062,0.757,0.364,0.628,0.588,���k��,5.4,��
2021/07/05,19:10,0.597,0.875,0.565,1.063,0.757,0.364,0.628,0.586,���k��,6.6,��
2021/07/05,19:20,0.597,0.874,0.564,1.063,0.757,0.365,0.629,0.588,���k��,7.7,��
2021/07/05,19:30,0.599,0.875,0.567,1.061,0.758,0.364,0.628,0.589,���k��,6.7,��
2021/07/05,19:40,0.599,0.874,0.566,1.064,0.757,0.363,0.630,0.587,��,5.7,��
2021/07/05,19:50,0.597,0.874,0.566,1.063,0.759,0.364,0.627,0.589,��,6.2,��
2021/07/05,20:00,0.598,0.875,0.567,1.064,0.757,0.365,0.630,0.589,��,6.9,��
2021/07/05,20:10,0.599,0.874,0.566,1.063,0.757,0.364,0.628,0.589,��,6.6,��
2021/07/05,20:20,0.597,0.873,0.565,1.066,0.757,0.365,0.630,0.589,��,6.9,��
2021/07/05,20:30,0.597,0.874,0.566,1.063,0.757,0.365,0.628,0.590,���쐼,6.4,��
2021/07/05,20:40,0.596,0.873,0.565,1.065,0.758,0.365,0.627,0.589,���쐼,6.8,��
2021/07/05,20:50,0.598,0.874,0.567,1.063,0.758,0.363,0.629,0.588,���쐼,7.0,��
2021/07/05,21:00,0.597,0.875,0.566,1.064,0.758,0.366,0.628,0.588,���쐼,5.8,��
2021/07/05,21:10,0.597,0.875,0.566,1.064,0.759,0.366,0.629,0.588,���쐼,6.1,��
2021/07/05,21:20,0.596,0.874,0.567,1.062,0.760,0.364,0.628,0.589,���쐼,4.0,��
2021/07/05,21:30,0.597,0.875,0.567,1.065,0.758,0.364,0.630,0.588,���쐼,3.4,��
2021/07/05,21:40,0.596,0.875,0.566,1.065,0.761,0.365,0.628,0.590,���쐼,3.3,��
2021/07/05,21:50,0.596,0.874,0.567,1.063,0.758,0.364,0.629,0.589,���쐼,3.7,��
2021/07/05,22:00,0.596,0.873,0.567,1.065,0.759,0.363,0.629,0.588,�쐼,3.1,��
2021/07/05,22:10,0.596,0.873,0.566,1.064,0.758,0.365,0.630,0.589,�쐼,2.6,��
2021/07/05,22:20,0.596,0.873,0.566,1.066,0.758,0.365,0.628,0.591,��,3.7,��
2021/07/05,22:30,0.596,0.874,0.567,1.064,0.761,0.365,0.628,0.588,��,4.6,��
2021/07/05,22:40,0.596,0.874,0.566,1.064,0.759,0.366,0.629,0.589,���쐼,3.2,��
2021/07/05,22:50,0.597,0.875,0.567,1.068,0.759,0.365,0.628,0.590,���쐼,5.4,��
2021/07/05,23:00,0.596,0.874,0.566,1.066,0.759,0.366,0.629,0.589,�쐼,6.4,��
2021/07/05,23:10,0.598,0.874,0.566,1.067,0.756,0.364,0.629,0.589,�쐼,6.7,��
2021/07/05,23:20,0.599,0.875,0.565,1.066,0.760,0.365,0.630,0.590,�쐼,6.5,��
2021/07/05,23:30,0.598,0.874,0.567,1.064,0.759,0.365,0.631,0.589,���쐼,6.0,��
2021/07/05,23:40,0.598,0.877,0.565,1.066,0.759,0.366,0.630,0.589,���쐼,6.3,��
2021/07/05,23:50,0.597,0.875,0.569,1.065,0.758,0.364,0.630,0.589,���쐼,5.8,��
